Location: Rock Island IL
(41.5000°N, 90.5500°W)
Time: 22:46:47
(UTC-05:00)

OTV 5 (USA 277) - Visible Passes

Search period start: 22 September 2017 00:00
Search period end: 02 October 2017 00:00
Orbit: 404 x 417 km, 43.0° (Epoch: 07 September)

Date Brightness Start Highest point End Pass type
(mag) Time Alt. Az. Time Alt. Az. Time Alt. Az.
22 Sep ? 04:28:04 21° E 04:28:04 21° E 04:29:23 10° E visible
22 Sep ? 06:00:50 15° W 06:03:29 68° N 06:06:46 10° ENE visible
23 Sep ? 05:12:11 73° NW 05:12:23 78° N 05:15:41 10° ENE visible
24 Sep ? 04:23:32 19° ENE 04:23:32 19° ENE 04:24:37 10° ENE visible
24 Sep ? 05:56:18 17° WNW 05:58:44 65° N 06:02:00 10° E visible
25 Sep ? 05:07:40 64° N 05:07:40 64° N 05:10:55 10° E visible
26 Sep ? 04:19:03 16° ENE 04:19:03 16° ENE 04:19:50 10° ENE visible
26 Sep ? 05:51:49 20° WNW 05:53:58 83° N 05:57:15 10° E visible
27 Sep ? 05:03:16 62° ENE 05:03:16 62° ENE 05:06:10 10° E visible
28 Sep ? 04:14:47 12° E 04:14:47 12° E 04:15:04 10° E visible
28 Sep ? 05:47:33 27° W 05:49:07 59° SSW 05:52:21 10° ESE visible
29 Sep ? 04:59:09 39° ESE 04:59:09 39° ESE 05:01:22 10° ESE visible
30 Sep ? 05:43:38 27° SW 05:44:08 29° SSW 05:47:02 10° SSE visible
01 Oct ? 04:55:27 16° SE 04:55:27 16° SE 04:56:18 10° SE visible
